Terminal Aerodrome Forecast
Issued by NWS

Home | Current Version | Previous Version | Text Only | Print | Product List | Glossary On
Versions: 1 2 3 4 5 6 7 8 9 10 11 12 13 14 15 16 17 18 19 20 21 22 23 24 25 26 27 28 29 30 31 32 33 34 35 36
000
FTUS45 KGJT 270121 AAA
TAFCNY
TAF AMD
KCNY 270121Z 2701/2724 30014KT P6SM SCT110 BKN200
     FM270200 33008KT P6SM BKN250
     FM270800 28004KT P6SM BKN250
     FM271800 31008KT P6SM SCT100 BKN250=

USA.gov is the U.S. government's official web portal to all federal, state and local government web resources and services.